Location: Clinton NY
(43.0598°N, 75.3602°W)
Time: 09:00:08
(UTC-04:00)

Daily predictions for brighter satellites

Satellite Brightness Start Highest point End
(mag) Time Altitude Azimuth Time Altitude Azimuth Time Altitude Azimuth
Lacrosse 5 rocket 1.2 20:55:23 10° SW 20:59:13 88° SE 21:03:17 10° NE
Cosmos 1331 Rocket 4.0 20:55:18 10° NNW 21:00:33 75° ENE 21:05:42 10° SSE
Lacrosse 5 3.6 20:58:46 10° W 21:03:27 37° NNW 21:08:10 10° NE
Meteor 1-23 Rocket 4.3 20:59:25 10° S 21:04:56 61° E 21:10:35 10° NNE
CZ-4 SHROUD 4.4 21:02:14 10° SE 21:05:00 28° ENE 21:07:47 10° N
Cosmos 2285 Rocket 4.1 20:59:27 10° NNW 21:05:47 72° ENE 21:12:07 10° SSE
Cosmos 1743 2.9 21:03:03 10° NNW 21:06:55 76° W 21:10:43 10° S
Cosmos 1302 Rocket 4.3 21:04:37 10° NNW 21:09:46 54° ENE 21:14:54 10° SE
Cosmos 1726 Rocket 3.7 21:05:52 10° N 21:10:21 81° W 21:14:45 10° S
SL-8 R/B 4.3 21:07:56 10° W 21:12:44 63° NNW 21:17:32 10° ENE
ALOS 3.5 21:10:39 10° S 21:15:04 42° W 21:19:32 10° NNW
SeaSat 1 2.7 21:10:43 10° SE 21:15:33 59° ENE 21:20:25 10° NNW
Okean 2 3.4 21:12:04 10° S 21:16:13 71° E 21:20:24 10° NNE
CZ-4B R/B 4.4 21:14:10 10° NE 21:18:32 29° E 21:22:59 10° SSE
Cosmos 1464 Rocket 4.0 21:12:44 10° N 21:18:54 78° E 21:25:03 10° S
Cosmos 1603 4.3 21:14:08 10° SSE 21:19:07 34° ESE 21:24:06 10° NE
Terra 4.1 21:19:50 10° ENE 21:20:56 11° ENE 21:22:02 10° NE
Cosmos 2058 Rocket 3.2 21:16:57 10° N 21:21:21 80° W 21:25:41 10° S
APEX 3.6 21:18:07 10° NNW 21:22:01 70° ENE 21:26:56 11° SSE
Meteor 2-9 Rocket 4.3 21:17:27 10° N 21:23:08 79° E 21:28:55 10° SSE
Meteor 2-4 Rocket 3.9 21:21:28 10° S 21:27:19 87° W 21:33:19 10° N
Cosmos 1602 Rocket 3.8 21:25:35 10° SSE 21:29:54 51° E 21:34:15 10° NNE
Cosmos 2333 Rocket 4.1 21:25:51 10° WSW 21:30:57 34° NW 21:36:05 10° N
Cosmos 1461 3.2 21:27:01 10° NNW 21:31:18 59° NE 21:34:38 15° SE
deb Chang Zheng 4 4.0 21:27:07 10° N 21:31:32 69° WNW 21:35:52 10° SSW
Cosmos 2251 Rocket 4.4 21:26:31 10° SW 21:31:44 55° WNW 21:37:01 10° NNE
Cosmos 2297 4.4 21:27:00 10° NNW 21:32:34 54° WSW 21:38:07 10° S
ATLAS 3B R/B 4.1 21:30:12 10° SSE 21:35:35 21° ESE 21:40:54 10° ENE
Milstar 3 Cent rocket 4.1 21:32:15 10° WSW 21:35:57 15° SSW 21:38:56 10° S
Cosmos 2034 Rocket 4.0 21:30:22 10° N 21:36:46 81° E 21:43:07 10° S
Cosmos 1812 Rocket 3.9 21:35:10 10° N 21:39:24 48° ENE 21:42:44 16° SSE
PSLV R/B 3.1 21:37:02 13° SSE 21:39:39 85° E 21:42:47 10° N
CZ-2C R/B 3.4 21:38:24 10° SW 21:39:53 15° W 21:41:23 10° NW
ERS-1 Rocket 4.1 21:39:13 10° S 21:43:56 42° W 21:48:43 10° NNW
Cosmos 1943 4.4 21:41:51 15° SE 21:44:57 23° E 21:49:19 10° NE
Envisat 3.1 21:39:54 10° S 21:44:58 80° WSW 21:50:05 10° NNW
BREEZE-M DEB (TANK) 2.4 21:41:40 10° SW 21:45:56 49° SSE 21:48:04 10° ENE
USA 234 3.3 21:43:14 15° SE 21:48:56 87° NE 21:55:33 10° NW
YAOGAN 6 2.9 21:50:25 20° SSE 21:52:48 56° ENE 21:56:29 10° N
H-2A R/B 3.5 21:49:52 10° SSW 21:53:43 33° W 21:57:40 10° NNW
Cosmos 1943 Rocket 4.2 21:53:06 10° N 21:56:31 16° NE 21:59:57 10° E
MetOp-A 4.2 21:56:20 14° SSE 22:00:57 85° WSW 22:06:21 10° NNW
Abrixas rocket 3.1 21:59:02 10° WNW 22:02:15 38° SW 22:03:38 26° SSE
Cosmos 1626 Rocket 3.8 21:59:01 10° SSW 22:03:27 70° W 22:07:53 10° N
ATLAS CENTAUR R/B 4.3 22:00:23 10° W 22:04:33 26° NW 22:08:46 10° NNE
Meteor 2-12 Rocket 4.4 22:04:57 10° N 22:11:05 82° E 22:15:36 19° S
Atlas Centaur 2 3.8 22:07:38 10° SW 22:14:18 30° SSE 22:18:15 21° SE
CZ-4C R/B 3.7 22:15:26 28° SE 22:17:28 55° ENE 22:21:30 10° N
Cosmos 1953 Rocket 4.1 22:18:28 29° SE 22:20:03 41° E 22:24:14 10° NNE
Cosmos 2346 Rocket 4.5 22:17:09 19° S 22:21:40 64° E 22:27:44 10° NNE
H-2A R/B 2.6 22:19:20 25° ESE 22:21:42 41° ENE 22:26:25 10° N
PSLV R/B 3.8 22:19:06 10° SW 22:22:26 39° SSE 22:22:27 39° SSE
SAR-Lupe-2 4.4 22:21:49 30° ESE 22:22:45 36° ENE 22:26:04 10° N
Cosmos 1992 Rocket 4.0 22:17:46 10° NNW 22:23:01 74° ENE 22:25:45 29° SSE
CZ-4 R/B 3.9 22:18:29 10° NNE 22:23:29 79° ESE 22:27:22 17° S
COSMOS 2455 2.8 22:17:59 10° SSW 22:23:58 75° ESE 22:29:59 10° NNE
Cosmos 2369 Rocket 2.4 22:22:49 10° NNW 22:28:28 61° ENE 22:31:20 29° SE
SPOT 1/Viking Rocket 3.8 22:26:44 21° S 22:30:12 65° WSW 22:35:20 10° NNW
SPOT 5 4.2 22:26:56 10° SSW 22:30:46 29° W 22:34:34 10° NW
DELTA 2 DEB (DPAF) 4.1 22:29:30 32° SSE 22:31:33 81° ENE 22:36:04 10° NNW
ARGOS 3.2 22:29:23 24° S 22:32:44 78° WSW 22:38:12 10° NNW
SL-16 R/B 4.4 22:29:54 10° WSW 22:34:37 26° NW 22:39:22 10° N
Spot 4 4.4 22:35:17 30° ESE 22:37:03 43° ENE 22:41:35 10° N
Cosmos 1953 3.8 22:34:07 10° NNE 22:37:15 22° ENE 22:37:47 21° E
IGS 5A 4.0 22:36:44 35° ESE 22:37:54 45° ENE 22:41:53 10° N
Geosat 3.9 22:32:56 10° NNE 22:37:59 77° ESE 22:42:04 16° SSW
Lacrosse 5 rocket 4.1 22:35:59 10° WNW 22:39:01 20° NNW 22:42:11 10° NNE
Cosmos 1190 Rocket 4.1 22:37:26 28° S 22:40:10 60° ESE 22:45:25 10° NNE
NOAA 11 4.3 22:37:26 26° S 22:40:34 74° WSW 22:46:01 10° NNW
Landsat 7 3.7 22:40:04 35° SSE 22:42:05 84° ENE 22:46:53 10° NNW
Cosmos-2242 3.9 22:40:09 10° N 22:44:12 34° ENE 22:45:05 31° E
Meteor 1-22 Rocket 4.2 22:39:24 10° N 22:44:58 81° E 22:47:39 33° SSE
Spot 2 4.5 22:44:51 10° NNE 22:49:32 57° ESE 22:51:03 40° SSE
Cosmos 2263 4.3 22:44:13 10° NNW 22:49:48 65° ENE 22:52:07 35° SE
SL-24 R/B 4.5 22:46:10 10° N 22:51:02 65° E 22:52:51 39° SSE
SeaSat 1 4.5 22:50:09 11° SSW 22:53:23 19° WSW 22:56:55 10° WNW
Cosmos 1758 Rocket 3.4 22:53:08 44° S 22:54:29 80° E 22:58:53 10° N
Lacrosse 4 Rocket 1.6 22:55:02 47° ESE 22:55:02 47° ESE 22:58:50 10° NE
Cosmos 676 Rocket 4.3 22:54:57 40° SSE 22:56:21 50° ESE 23:01:31 10° NNE
SL-08 RB Rocket 4.4 22:55:15 29° SSW 22:57:16 49° W 23:01:41 10° NNW
Terra 1.7 22:56:20 43° SSE 22:57:53 84° ENE 23:02:40 10° NNW
CARTOSAT-1 3.5 22:57:34 49° SSE 22:58:43 88° WSW 23:03:05 10° NNW
Cosmos 1346 Rocket 3.0 23:03:05 43° SW 23:04:11 65° WNW 23:08:06 10° N
Cosmos 1140 Rocket 4.3 23:09:35 32° ESE 23:09:42 32° E 23:14:20 10° NE
Cosmos 1900 4.3 23:17:42 48° S 23:19:04 71° ESE 23:24:12 10° NE
Cosmos 1758 3.3 23:17:30 10° N 23:21:36 67° E 23:21:45 66° E
Meteor 1-21 4.3 23:19:01 33° SSW 23:21:45 76° W 23:27:35 10° N
Cosmos 1842 3.1 23:23:02 79° SW 23:23:14 83° W 23:27:11 10° N
Nadezhda 4 Rocket 4.1 23:21:21 42° SSE 23:23:18 60° E 23:29:32 10° NNE
Cosmos 1842 Rocket 4.0 23:19:23 10° N 23:23:36 45° ENE 23:23:51 45° E
ATLAS 3B R/B 2.9 23:17:47 10° SW 23:25:31 88° NW 23:33:04 10° NE
SL-27 R/B 3.8 23:29:35 29° NE 23:29:35 29° NE 23:31:30 10° NNE
Cosmos 1943 3.9 23:23:34 13° SW 23:28:35 53° WNW 23:34:10 10° NNE
Cosmos 407 Rocket 3.8 23:27:23 28° SW 23:30:07 63° WNW 23:35:19 10° NNE
USA 234 4.4 23:30:35 23° SSW 23:32:26 26° SW 23:37:48 10° WNW
Cosmos 2208 Rocket 4.3 23:32:12 10° NNW 23:37:18 56° ENE 23:38:18 47° ESE
Cosmos 1544 4.0 23:36:24 10° N 23:39:32 43° NE 23:39:32 43° NE
Cosmos 1943 Rocket 2.0 23:35:29 10° NNW 23:41:04 90° WSW 23:42:15 58° SSE
Cosmos 1954 Rocket 4.1 23:47:02 46° SW 23:48:36 75° WNW 23:53:56 10° NNE
CZ-4B R/B 3.3 23:50:30 25° ENE 23:50:30 25° ENE 23:53:09 10° NNE
